FW4242 Weather Reports


time (UTC)temp
C
wind
direction
speed
KPH
gust
KPH
rain 1hr
cm
rain 24hr
cm
rain mn
cm
humidity
%
barometer
mb
20260505200012 16 278 0.0 9.7 0.00 0.00 0.00 76 1014.9
20260505194527 16 310 1.6 4.8 0.00 0.00 0.00 75 1015.0
20260505193029 16 67 0.0 4.8 0.00 0.00 0.00 76 1015.1
20260505191549 15 150 0.0 4.8 0.00 0.00 0.00 79 1015.1
20260505190034 14 354 0.0 3.2 0.00 0.00 0.00 80 1015.2
20260505184532 14 254 0.0 4.8 0.00 0.00 0.00 80 1015.2
20260505183031 14 145 0.0 8.0 0.00 0.00 0.00 80 1015.2
20260505181528 13 160 0.0 4.8 0.00 0.00 0.00 81 1015.1
20260505180041 14 162 0.0 6.4 0.00 0.00 0.00 80 1015.1
20260505174536 14 240 1.6 8.0 0.00 0.00 0.00 80 1015.1
20260505173053 14 238 0.0 4.8 0.00 0.00 0.00 80 1015.0
20260505171553 14 220 1.6 6.4 0.00 0.00 0.00 80 1014.9
20260505170122 14 259 0.0 8.0 0.00 0.00 0.00 80 1014.8
20260505164550 14 155 3.2 9.7 0.00 0.00 0.00 79 1014.7
20260505163048 13 243 1.6 6.4 0.00 0.00 0.00 81 1014.6
20260505161555 13 113 0.0 4.8 0.00 0.00 0.00 82 1014.6
20260505153012 12 149 1.6 6.4 0.00 0.00 0.00 85 1014.5
20260505151511 12 245 0.0 8.0 0.00 0.00 0.00 86 1014.5
20260505124523 12 255 0.0 3.2 0.00 0.00 0.00 86 1013.4
20260505123030 12 162 0.0 1.6 0.00 0.00 0.00 86 1013.4
20260505121523 12 205 0.0 6.4 0.00 0.00 0.00 86 1013.4
20260505120026 12 262 0.0 0.0 0.00 0.00 0.00 86 1013.3
20260505114520 12 159 0.0 1.6 0.00 0.00 0.00 85 1013.3
20260505113028 12 250 1.6 6.4 0.00 0.00 0.00 85 1013.3
20260505111527 12 162 0.0 0.0 0.00 0.00 0.00 85 1013.2
20260505101515 12 166 0.0 0.0 0.00 0.00 0.00 86 1012.9
20260505100009 12 197 0.0 0.0 0.00 0.00 0.00 85 1012.9
20260505094508 12 156 0.0 3.2 0.00 0.00 0.00 85 1012.8
20260505093009 12 158 0.0 3.2 0.00 0.00 0.00 85 1012.8
20260505091505 12 195 0.0 6.4 0.00 0.00 0.00 84 1012.7
20260505084557 13 203 0.0 1.6 0.00 0.00 0.00 82 1012.4
20260505083107 13 248 0.0 3.2 0.00 0.00 0.00 82 1012.3
20260505081557 13 256 0.0 0.0 0.00 0.00 0.00 81 1012.3
20260505080051 13 217 0.0 4.8 0.00 0.00 0.00 81 1012.2
20260505074550 13 261 0.0 1.6 0.00 0.00 0.00 81 1012.2
20260505073049 14 256 1.6 6.4 0.00 0.00 0.00 81 1011.9
20260505071548 14 206 0.0 8.0 0.00 0.00 0.00 81 1011.7
20260505070050 14 195 0.0 8.0 0.00 0.00 0.00 80 1011.5
20260505064556 15 202 0.0 0.0 0.00 0.00 0.00 79 1011.3
20260505063051 15 201 0.0 6.4 0.00 0.00 0.00 78 1011.2
20260505061544 16 281 1.6 8.0 0.00 0.00 0.00 76 1011.0
20260505060041 16 261 0.0 4.8 0.00 0.00 0.00 76 1010.8
20260505054543 17 303 0.0 0.0 0.00 0.00 0.00 75 1010.7
20260505053040 17 305 0.0 4.8 0.00 0.00 0.00 73 1010.6
20260505051540 17 276 0.0 4.8 0.00 0.00 0.00 73 1010.6
20260505041536 19 229 1.6 8.0 0.00 0.00 0.00 72 1009.7
20260505040034 20 252 0.0 6.4 0.00 0.00 0.00 72 1009.3
20260505034503 20 168 0.0 8.0 0.00 0.00 0.00 73 1009.0
20260505033002 20 204 0.0 3.2 0.00 0.00 0.00 72 1008.8
20260505031608 20 140 1.6 12.9 0.00 0.00 0.00 71 1008.6
20260505030059 21 166 0.0 4.8 0.00 0.00 0.00 70 1008.5
20260505024558 21 114 1.6 9.7 0.00 0.00 0.00 68 1008.4
20260505023103 22 215 1.6 8.0 0.00 0.00 0.00 66 1008.4
20260505021530 22 193 0.0 9.7 0.00 0.00 0.00 64 1008.3
20260505020024 23 229 1.6 14.5 0.00 0.00 0.00 63 1008.4
20260505014521 23 285 0.0 17.7 0.00 0.00 0.00 63 1008.4
20260505013023 23 155 1.6 14.5 0.00 0.00 0.00 62 1008.6
20260505011517 23 143 3.2 9.7 0.00 0.00 0.00 61 1008.6
20260505010016 23 162 3.2 12.9 0.00 0.00 0.00 61 1008.7
20260505004546 23 251 1.6 9.7 0.00 0.00 0.00 62 1008.8
20260505003044 23 142 1.6 11.3 0.00 0.00 0.00 61 1008.9
20260505001548 23 251 0.0 14.5 0.00 0.00 0.00 60 1008.9
20260505000042 23 169 4.8 11.3 0.00 0.00 0.00 59 1009.0
20260504234535 22 139 3.2 14.5 0.00 0.00 0.00 61 1009.0
20260504233035 22 208 9.7 16.1 0.00 0.00 0.00 60 1009.1
20260504231539 22 210 4.8 12.9 0.00 0.00 0.00 61 1009.3
20260504230027 22 252 1.6 11.3 0.00 0.00 0.00 60 1009.4
20260504224527 22 196 8.0 16.1 0.00 0.00 0.00 60 1009.6
20260504223022 22 229 3.2 16.1 0.00 0.00 0.00 59 1009.7
20260504221520 21 197 0.0 11.3 0.00 0.00 0.00 61 1009.9
20260504220020 21 205 3.2 12.9 0.00 0.00 0.00 62 1010.0
20260504214512 20 153 4.8 14.5 0.00 0.00 0.00 64 1010.1
20260504213012 20 148 3.2 14.5 0.00 0.00 0.00 65 1010.4
20260504211511 20 236 1.6 11.3 0.00 0.00 0.00 66 1010.5
20260504210003 19 199 4.8 14.5 0.00 0.00 0.00 66 1010.7
20260504204604 19 172 1.6 16.1 0.00 0.00 0.00 68 1011.0
20260504203103 18 241 4.8 14.5 0.00 0.00 0.00 70 1011.2
20260504201553 18 150 0.0 12.9 0.00 0.00 0.00 70 1011.4